This is the latest recevied weather packets stored in our database for station/object DH9SB-6. If no packets are shown the sender has not sent any weather packets the latest 10 day(s).
| Time | Temp. | Humidity | Pressure | Rain* | Wind** | Luminosity | Snow |
|---|---|---|---|---|---|---|---|
| 1787832444 | 32.78° C | 37% | - | 0 mm | - | - | - |
| 1787831868 | 31.67° C | 40% | - | 0 mm | - | - | - |
| 1787831579 | 31.67° C | 41% | - | 0 mm | - | - | - |
| 1787830956 | 31.67° C | 42% | - | 0 mm | - | - | - |
| 1787830380 | 31.67° C | 42% | - | 0 mm | - | - | - |
| 1787829756 | 31.67° C | 42% | - | 0 mm | - | - | - |
| 1787829179 | 31.67° C | 42% | - | 0 mm | - | - | - |
| 1787828556 | 31.11° C | 43% | - | 0 mm | - | - | - |
| 1787827980 | 31.11° C | 43% | - | 0 mm | - | - | - |
| 1787827404 | 30.56° C | 44% | - | 0 mm | - | - | - |
| 1787827067 | 30.56° C | 44% | - | 0 mm | - | - | - |
| 1787826445 | 30° C | 44% | - | 0 mm | - | - | - |
| 1787825579 | 30° C | 43% | - | 0 mm | - | - | - |
| 1787824956 | 30° C | 45% | - | 0 mm | - | - | - |
| 1787824380 | 30° C | 44% | - | 0 mm | - | - | - |
| 1787823757 | 30° C | 45% | - | 0 mm | - | - | - |
| 1787823179 | 30° C | 44% | - | 0 mm | - | - | - |
| 1787822556 | 30.56° C | 44% | - | 0 mm | - | - | - |
| 1787821980 | 30° C | 47% | - | 0 mm | - | - | - |
| 1787821356 | 28.89° C | 48% | - | 0 mm | - | - | - |
| 1787820779 | 28.33° C | 51% | - | 0 mm | - | - | - |
| 1787820156 | 26.67° C | 60% | - | 0 mm | - | - | - |
| 1787819582 | 25° C | 61% | - | 0 mm | - | - | - |
| 1787818956 | 24.44° C | 61% | - | 0 mm | - | - | - |
| 1787817758 | 25° C | 60% | - | 0 mm | - | - | - |
* Rain latest hour (hover to see other rain measurements)
** Current wind speed in m/s (hover to see current wind gust speed)